Theta_e
305 304 303 304 304 302 302 302 302 303 303 303 303 303 302 302 300 300 300 301 301 302 301 301 302 304 304 305 305 305 305 304 304 304 306 306 306 306 305 305 305 304 302 302 300 299 298 298 296 294 291 288
306 304 303 302 302 302 301 301 301 302 302 302 302 302 301 300 299 299 298 299 299 300 299 299 300 302 303 304 304 303 303 303 303 303 303 304 305 305 304 304 303 301 300 300 299 297 297 296 294 292 290 287
305 304 303 303 302 302 302 302 301 302 301 301 300 300 299 299 299 298 297 297 296 298 298 296 297 300 301 302 302 302 302 301 301 302 302 302 301 301 301 302 299 297 297 297 296 296 295 294 291 290 287 287
300 305 304 304 304 303 303 302 302 302 301 301 300 299 299 299 301 300 294 295 293 295 295 294 296 298 299 301 300 300 299 299 300 300 301 300 299 299 298 298 294 293 294 295 295 294 293 292 289 286 286 285
297 298 302 304 305 306 305 304 303 302 302 302 302 302 299 300 297 295 294 292 291 294 292 293 295 296 297 299 298 298 297 297 298 298 299 298 297 296 295 293 291 291 292 292 293 292 291 290 286 286 285 285
295 296 299 298 298 299 301 302 304 303 302 302 300 300 300 298 296 295 293 292 293 293 291 293 295 294 295 297 297 297 296 295 296 297 297 296 296 294 293 291 287 287 288 289 290 290 289 286 286 286 285 285
294 295 295 295 294 296 298 298 300 300 300 298 297 297 296 297 295 293 293 292 293 294 295 295 294 293 294 295 295 294 294 293 293 295 294 294 294 292 290 287 287 286 286 286 287 287 286 285 285 285 285 285
292 293 293 293 293 293 294 294 295 295 296 296 295 294 294 294 294 294 292 292 293 293 292 290 290 291 291 291 291 291 290 290 290 292 291 291 291 287 287 286 285 286 285 286 285 285 285 285 285 285 285 285
291 293 292 292 292 292 292 293 293 293 293 293 293 293 293 293 293 292 291 290 290 290 288 288 289 288 288 288 288 289 288 287 287 287 286 286 286 286 286 285 285 285 285 285 285 284 284 284 284 284 285 284
291 293 292 292 291 292 292 292 292 292 292 292 292 292 292 292 292 291 290 290 289 289 288 288 288 288 287 287 287 287 287 287 286 286 286 286 285 285 285 285 285 284 285 284 284 284 283 283 283 283 284 284
290 290 291 291 291 292 292 291 291 291 291 291 290 290 291 291 290 290 289 289 288 288 287 287 287 287 287 286 286 287 286 286 286 285 285 285 285 285 284 284 284 284 283 283 283 284 283 283 282 282 282 283
289 289 289 290 293 292 292 293 292 291 290 290 290 290 289 290 290 289 288 288 288 288 287 287 287 286 286 286 286 286 286 286 286 285 285 285 285 284 284 283 284 283 283 284 284 283 283 283 282 282 283 282
289 289 289 290 290 290 293 292 292 291 290 290 289 289 289 290 289 288 288 288 288 287 287 287 286 286 286 286 286 286 286 285 285 285 285 285 284 284 284 284 284 284 284 283 283 283 283 283 283 283 282 282
290 289 290 290 290 289 293 290 290 291 290 290 288 288 288 288 289 288 288 288 287 286 287 286 286 286 286 285 286 285 285 285 284 284 284 284 284 283 284 283 284 284 283 283 283 283 283 283 283 283 282 282
288 289 289 291 289 290 290 289 290 290 289 289 289 289 288 288 288 289 288 287 287 286 286 286 286 286 285 285 286 285 285 285 284 284 284 284 284 284 283 283 283 283 282 283 283 283 282 282 283 282 282 282
290 289 290 290 289 290 290 291 290 289 289 290 289 289 288 288 287 288 288 288 287 286 286 286 286 286 285 285 285 285 285 284 284 284 284 284 283 283 283 283 283 283 282 282 283 282 282 282 282 282 282 282
288 289 289 289 290 290 290 289 289 289 289 289 288 288 288 288 287 288 288 287 287 288 287 287 286 286 286 286 286 285 285 284 284 284 283 283 283 283 283 283 283 283 282 282 282 282 282 282 282 282 282 282
288 288 290 289 288 289 289 288 288 290 288 288 289 288 288 287 287 288 287 287 287 286 286 286 285 285 285 286 285 284 284 284 284 283 283 283 283 283 283 282 282 281 282 282 282 282 282 282 282 282 281 281
288 287 287 288 288 288 288 288 288 287 287 287 287 287 287 286 287 288 287 286 286 286 285 285 285 285 285 285 284 284 284 283 283 283 282 283 282 282 282 282 282 282 281 281 281 281 282 281 281 281 281 281
285 285 286 286 287 287 287 286 286 286 286 286 286 286 286 286 286 287 286 286 285 285 285 284 284 285 285 284 284 284 283 283 283 283 282 283 282 281 282 282 282 282 281 281 281 281 281 281 281 281 281 281
286 285 285 285 285 286 286 285 285 286 286 286 286 285 285 286 285 286 286 285 284 284 285 284 284 284 284 284 283 283 283 283 283 282 282 282 283 282 281 281 281 281 281 281 280 281 281 281 281 281 281 281
284 284 284 284 285 286 285 285 285 286 286 286 285 285 285 285 285 286 285 285 284 284 284 284 284 284 284 283 283 282 282 282 282 282 281 281 282 281 281 280 281 280 281 280 280 280 280 281 281 281 281 281
284 284 284 284 284 284 284 285 285 286 285 285 285 285 285 285 285 285 285 284 284 284 284 283 283 283 283 283 282 282 282 282 282 282 281 280 281 281 281 280 281 280 280 280 280 279 280 280 280 281 281 282
283 283 283 282 282 282 283 283 285 286 285 285 285 285 285 285 285 285 285 285 284 284 283 283 283 283 283 283 282 281 281 282 282 281 281 281 280 280 280 281 281 280 279 279 279 279 280 280 280 280 281 281
281 281 281 281 280 280 281 282 283 283 284 284 285 285 285 285 285 285 284 285 284 284 283 283 283 282 282 283 282 281 281 282 281 281 281 281 281 281 280 280 281 280 280 278 278 280 279 280 280 281 281 281
281 281 281 280 279 280 281 281 280 280 282 283 283 283 284 284 284 284 284 284 284 283 283 282 282 282 282 282 281 282 282 281 282 282 281 281 279 281 279 279 280 280 279 278 277 277 277 279 280 281 281 281
280 280 281 280 279 279 280 282 281 281 282 282 282 282 283 283 283 283 283 282 282 282 282 281 281 281 281 281 281 281 280 281 280 280 280 280 279 279 280 279 280 280 280 278 279 278 276 276 277 279 280 281
280 279 279 279 279 279 279 278 280 280 280 280 280 280 282 282 282 282 281 281 281 281 281 281 280 281 280 280 281 280 279 279 279 280 280 280 279 279 277 278 279 281 280 279 278 275 276 276 275 274 277 277
279 278 277 277 278 279 278 278 278 278 278 279 279 280 280 280 281 280 280 280 280 280 280 280 280 279 280 279 280 280 279 279 279 279 280 280 279 278 278 277 279 280 279 279 280 279 276 275 273 273 276 277
277 276 276 275 275 275 275 274 275 275 275 276 277 277 279 279 279 278 278 278 278 278 279 278 278 278 278 278 278 278 278 279 279 279 279 280 279 278 279 278 277 277 280 279 279 280 280 280 277 277 277 276
277 276 276 275 275 275 274 274 275 276 276 277 277 277 276 276 277 277 276 276 276 277 277 277 277 277 277 277 277 278 278 278 278 279 279 280 279 279 279 279 276 276 277 279 278 278 279 279 280 279 276 274
Wind_Speed
7 7 6 5 5 5 4 4 4 5 6 6 7 7 8 8 8 8 9 10 11 11 12 12 13 12 12 12 12 12 12 12 12 12 12 12 12 11 11 11 12 11 9 11 11 12 12 11 11 12 11 6
6 5 4 4 3 3 2 2 2 3 3 4 5 5 6 6 6 6 8 9 10 10 11 11 12 12 12 12 12 13 13 12 12 12 12 12 12 12 12 11 11 11 11 12 12 11 11 11 12 12 10 5
2 3 3 3 2 2 2 1 0 1 2 3 3 4 4 4 4 5 6 7 8 8 9 9 10 11 12 12 12 13 13 13 13 13 12 12 12 12 12 11 11 12 12 12 12 11 10 10 11 10 5 4
1 2 1 3 3 3 2 2 2 1 1 1 1 1 2 3 4 3 3 4 4 5 7 7 6 8 11 11 12 12 12 13 13 13 12 13 13 12 12 12 12 11 11 11 12 11 11 10 9 4 3 3
1 1 3 3 4 4 4 4 4 4 3 1 1 3 1 2 2 1 1 1 1 3 2 4 5 6 8 10 11 11 12 12 12 12 12 13 13 12 13 11 10 9 10 10 11 11 10 9 4 3 2 2
1 2 2 3 3 3 4 4 5 3 2 1 0 1 0 1 1 1 1 1 1 1 2 2 4 5 7 9 10 10 10 10 11 11 12 12 12 12 11 10 4 4 5 7 8 9 9 4 2 2 2 2
2 3 3 4 4 3 5 5 5 4 3 2 1 1 1 1 1 1 1 1 2 2 3 3 5 6 7 8 8 8 8 8 9 9 10 11 10 10 9 4 3 3 2 2 5 5 4 3 3 3 3 3
2 2 2 2 2 2 3 3 3 3 3 2 2 2 1 1 1 1 1 2 3 3 2 3 4 5 5 6 6 6 4 5 5 7 7 7 8 5 3 3 3 3 2 2 2 2 2 3 3 3 4 3
1 1 1 1 1 2 2 2 2 2 2 2 2 2 2 2 2 2 2 2 2 1 2 2 2 2 2 2 2 3 2 2 2 3 2 2 3 2 3 3 3 3 4 3 3 2 1 2 2 3 3 4
1 1 1 1 2 2 1 2 2 2 2 2 2 2 2 2 2 2 2 2 3 2 2 3 2 2 2 2 2 1 2 2 2 2 1 2 2 2 1 2 2 3 3 4 4 2 2 2 2 2 3 4
0 1 1 2 2 2 2 1 2 2 2 2 2 2 1 2 3 2 2 3 3 3 2 3 2 2 2 2 3 1 2 3 2 2 2 2 2 2 2 2 2 2 3 3 4 4 4 2 2 2 2 3
2 2 3 2 2 2 2 3 2 2 2 2 2 2 1 2 2 2 3 3 3 3 2 3 3 2 3 2 3 2 2 3 2 2 2 2 2 2 2 2 2 2 3 3 3 5 5 4 2 2 2 2
2 2 2 2 2 2 2 2 2 2 2 3 2 2 1 1 2 1 2 3 3 2 3 3 2 2 3 3 3 2 3 2 3 3 2 2 3 2 2 3 3 3 3 3 3 3 5 5 5 4 2 2
4 3 3 3 2 2 2 3 3 3 2 2 2 2 1 1 2 2 2 3 2 2 4 3 2 3 3 3 3 2 4 2 2 3 3 3 3 3 3 3 3 3 3 3 3 3 4 4 5 5 4 3
5 3 4 3 3 3 3 3 2 2 2 2 2 2 2 2 2 2 2 3 3 2 3 3 3 3 3 4 3 2 3 2 3 2 3 3 3 3 3 3 3 3 4 4 4 3 4 4 4 5 5 5
6 5 5 4 4 4 3 3 3 2 2 2 2 2 2 2 2 2 2 2 3 3 3 3 3 4 3 5 4 3 3 3 2 3 3 3 3 3 3 4 3 3 3 4 4 4 4 3 4 4 5 5
5 4 5 5 5 4 4 4 4 4 3 3 2 2 2 2 2 2 3 2 3 3 3 3 4 4 4 5 4 3 3 4 3 3 3 3 2 3 3 4 4 3 3 4 4 4 4 4 4 4 5 5
6 5 5 5 5 5 6 5 5 4 4 3 3 3 3 3 3 3 2 3 3 2 3 3 4 5 5 4 4 3 2 3 3 3 3 4 3 4 3 4 4 4 5 4 4 4 4 4 5 4 5 5
7 6 6 6 6 6 6 6 6 6 5 5 5 4 4 5 5 4 4 3 3 3 3 4 4 5 5 3 3 3 3 3 3 3 4 3 4 4 4 4 4 4 5 5 5 5 4 5 5 5 5 6
7 7 6 5 5 5 6 5 5 6 5 5 5 5 5 6 6 5 5 4 4 4 4 4 4 5 5 4 4 4 3 3 4 3 4 4 3 4 5 4 5 4 5 4 5 5 4 5 5 5 5 6
10 9 9 8 8 7 7 7 6 5 5 4 5 5 5 6 6 6 5 4 3 3 5 4 5 6 6 5 5 5 4 4 4 3 4 5 4 4 5 5 6 6 5 4 5 5 6 6 5 6 6 6
8 7 8 8 7 8 8 8 7 7 7 7 5 4 5 5 5 6 6 5 4 3 4 5 5 6 6 5 5 5 5 5 3 4 3 5 4 3 4 5 5 7 5 3 5 6 7 7 5 6 6 6
8 8 8 7 7 7 7 6 6 5 6 6 6 7 7 6 6 5 6 5 4 4 5 5 5 5 6 5 5 5 5 5 5 4 4 5 6 3 5 5 6 6 5 5 5 6 8 6 7 6 6 6
7 7 8 9 9 9 9 7 6 6 5 5 6 6 7 7 7 7 7 7 6 5 5 5 6 6 6 5 5 5 6 6 5 6 6 6 6 7 5 5 6 4 4 5 6 8 7 6 7 8 7 7
8 9 8 7 7 7 6 6 6 6 6 6 6 7 7 8 7 8 8 8 8 8 7 6 6 6 6 5 5 5 6 7 8 6 6 6 5 6 7 6 4 4 3 4 6 5 6 5 6 8 8 7
7 5 5 5 6 5 5 6 7 8 7 6 5 6 7 7 8 9 9 9 9 9 8 8 8 7 7 7 7 6 6 7 7 7 6 5 6 5 7 6 2 2 2 4 5 7 7 5 5 6 5 7
8 7 6 6 6 6 5 3 4 5 6 5 7 7 7 8 8 9 9 10 9 8 8 8 8 8 7 7 7 8 8 7 7 6 7 7 7 8 4 6 4 5 6 7 2 3 6 6 9 2 3 3
7 7 6 5 5 5 5 6 6 5 5 7 9 10 8 8 8 9 9 9 10 8 8 9 9 8 8 8 8 7 8 8 9 8 8 6 6 6 9 6 5 5 7 7 3 5 2 4 4 12 1 1
8 7 7 7 5 4 5 4 6 8 8 9 9 8 8 9 9 10 9 10 11 10 10 10 10 10 9 9 9 8 8 8 8 9 8 9 8 7 8 11 8 4 5 8 8 8 4 3 3 5 6 8
8 8 8 8 9 9 9 8 9 10 11 10 10 9 9 9 10 11 10 10 11 11 11 11 11 11 11 11 10 9 9 8 8 8 9 8 8 9 9 10 10 10 5 8 9 9 9 9 10 8 4 4
8 8 8 9 8 8 8 9 8 8 9 9 9 9 11 10 10 10 11 11 11 11 11 11 11 11 11 11 10 10 10 9 10 9 9 9 8 8 8 8 10 10 10 5 6 8 11 11 9 7 6 6
Wind_Direction
125 123 117 116 109 96 93 79 80 72 75 69 66 62 57 56 49 43 37 34 34 33 33 27 24 19 23 23 25 26 26 22 19 16 14 11 10 7 9 3 16 24 21 7 7 10 8 16 28 26 26 17
141 138 138 124 121 128 117 101 68 77 69 72 66 62 63 56 53 42 32 28 26 25 27 21 17 12 17 18 22 23 22 20 17 16 13 13 12 11 9 11 25 11 4 0 1 3 9 17 25 21 26 13
44 150 164 173 170 186 189 185 64 49 50 53 54 66 65 55 57 40 27 20 20 16 21 15 10 3 10 12 17 18 17 15 13 12 13 15 14 11 12 19 16 5 357 355 357 360 7 16 21 24 24 14
48 5 202 210 221 234 249 271 267 294 320 21 100 67 89 79 83 58 28 9 23 0 16 6 1 358 3 5 11 13 13 11 8 8 11 13 10 12 14 15 11 4 358 356 355 359 3 12 17 23 17 4
17 340 322 357 359 344 325 277 270 272 298 343 49 101 107 96 101 102 88 7 347 356 356 345 345 350 351 355 3 8 9 7 4 4 7 8 8 11 11 14 16 12 4 357 354 356 358 7 9 13 2 348
356 341 326 0 347 333 334 346 341 357 34 59 80 304 84 104 175 178 181 218 268 269 292 288 313 336 335 345 353 359 3 1 1 360 4 5 5 8 9 12 13 9 4 0 354 355 352 359 350 354 342 330
350 347 2 351 354 346 343 347 343 348 349 16 13 359 343 277 274 242 259 256 246 253 274 305 315 323 326 337 345 351 356 357 356 357 1 2 4 8 8 8 0 359 353 347 357 351 350 339 341 329 318 315
343 356 1 346 343 345 342 336 321 324 340 346 346 342 328 313 316 305 297 296 307 313 325 314 313 324 334 332 342 349 355 348 355 359 0 1 4 10 4 357 353 347 339 341 346 332 334 330 328 319 318 319
330 337 346 323 321 330 321 309 314 319 327 331 330 330 317 315 305 307 300 306 301 300 317 304 298 317 329 326 317 346 332 333 335 354 349 349 4 360 354 346 345 338 333 336 330 327 321 315 305 307 310 311
239 326 286 309 332 331 327 316 308 318 310 304 308 313 306 300 303 303 308 309 304 313 329 296 298 308 317 306 296 337 313 313 325 323 332 338 333 344 342 332 325 327 329 326 324 323 321 306 305 300 304 306
169 307 356 4 341 321 325 304 311 308 304 302 306 311 323 310 309 314 314 308 308 311 320 293 304 308 310 303 297 305 303 305 302 306 319 315 313 318 319 313 306 303 304 308 314 314 308 302 295 293 294 296
29 20 16 360 350 347 302 306 303 307 308 310 314 333 331 302 306 308 315 303 305 312 300 292 307 304 295 299 291 304 277 292 296 292 296 294 295 305 303 301 300 300 298 303 303 306 309 306 298 296 290 289
41 39 25 17 342 331 319 333 329 330 326 328 334 343 333 304 297 291 279 290 293 304 289 292 294 295 292 293 286 287 280 252 281 285 286 287 294 298 299 298 298 297 302 301 300 299 299 302 303 302 297 287
62 33 44 19 16 352 3 4 344 338 346 335 328 324 317 265 261 261 265 271 275 276 285 287 282 275 274 276 273 273 277 270 264 281 280 274 276 286 289 295 297 306 301 298 292 289 291 292 301 301 302 300
77 79 70 47 36 28 23 358 353 358 344 326 320 297 273 241 243 254 247 261 280 278 274 281 282 277 281 272 267 260 267 265 262 262 261 277 288 290 292 288 292 288 296 291 288 284 285 293 295 292 295 297
79 66 64 63 52 42 25 15 14 359 355 341 331 313 292 283 251 263 266 254 266 266 275 275 279 281 280 269 272 259 264 275 262 260 266 258 257 266 270 282 281 278 283 289 288 289 283 283 282 290 292 291
88 77 58 54 44 33 26 21 6 11 358 335 326 321 307 289 276 258 261 256 252 262 262 265 270 274 262 265 272 270 260 269 266 263 263 262 246 260 258 267 273 270 275 277 284 289 288 293 284 282 286 287
61 46 46 37 28 23 19 15 9 1 351 342 339 335 319 304 292 273 259 254 265 251 261 263 259 261 270 258 261 262 254 260 259 268 270 271 272 272 278 278 283 286 285 282 281 278 287 285 286 292 287 284
38 36 34 26 24 21 14 12 9 0 354 353 347 340 331 334 321 312 306 296 286 280 261 266 268 261 255 270 259 258 243 251 263 253 265 271 273 277 270 267 273 272 274 282 289 290 290 285 289 282 279 285
46 45 50 38 28 27 19 19 17 5 355 351 347 353 342 342 332 324 324 324 319 298 294 286 282 274 284 284 280 268 259 237 255 254 261 256 250 277 274 276 276 267 273 276 281 286 285 283 285 284 283 282
37 34 30 28 22 19 18 18 8 7 0 357 358 352 345 343 334 330 328 324 311 289 291 290 283 286 296 306 295 290 281 264 258 257 260 268 243 237 271 275 275 279 269 282 284 285 285 281 283 281 283 279
40 33 29 28 19 13 13 4 0 356 355 357 358 349 350 340 336 335 332 327 316 296 289 286 286 293 294 297 289 282 283 278 281 264 253 270 262 233 248 265 270 275 282 285 289 289 284 284 281 277 277 275
35 29 31 27 18 13 8 358 354 355 347 349 345 349 345 345 344 341 335 327 322 314 309 306 300 295 295 296 290 285 282 281 277 269 257 258 271 245 246 263 267 273 290 290 283 282 279 280 278 276 269 271
31 31 25 11 2 5 360 348 341 344 342 335 341 342 343 343 343 345 341 337 340 333 326 320 316 311 306 303 297 289 287 283 282 284 282 265 263 275 266 247 263 264 275 276 276 275 273 266 274 270 270 272
26 22 9 10 8 352 331 322 331 335 339 342 344 343 338 339 343 341 342 344 346 343 337 331 323 318 316 313 303 294 286 285 288 285 275 279 277 275 275 270 249 255 243 282 282 237 251 266 246 261 272 268
33 25 16 352 339 330 323 330 347 347 342 347 342 332 333 339 342 345 347 350 351 348 347 344 341 335 331 328 320 304 292 287 287 287 279 273 281 245 263 271 246 242 176 254 273 309 308 277 249 235 232 248
18 4 3 351 333 328 322 303 338 337 339 342 340 338 345 343 350 352 355 357 355 354 350 348 343 340 333 330 327 324 319 312 301 292 284 274 270 287 245 258 252 236 205 274 286 276 302 307 330 218 205 213
5 356 346 331 325 326 342 346 346 339 347 355 354 357 354 353 4 1 357 354 351 348 347 346 342 336 337 333 331 323 320 318 312 306 299 283 266 257 283 262 258 208 216 228 251 282 197 318 326 308 179 223
359 351 356 354 352 359 358 5 4 2 1 360 352 350 359 359 2 356 353 348 348 344 340 340 338 336 332 331 329 326 320 316 309 303 294 289 282 262 265 279 274 232 201 220 217 251 285 280 239 225 293 326
4 5 8 1 7 7 6 4 4 3 354 350 351 353 348 347 350 346 343 342 340 336 334 334 333 332 331 329 327 324 317 309 304 297 297 291 284 276 257 262 275 276 212 221 221 229 238 247 273 301 302 354
9 10 17 15 16 11 9 1 359 354 347 343 340 339 338 336 340 341 339 338 337 336 336 334 335 335 333 331 329 324 319 314 310 305 300 297 287 277 273 258 264 259 269 241 227 228 236 247 254 252 259 257